Вернуться в каталог

STARLINK-35775

АктивенСвязьVLEO
NORAD 67038·PAYLOAD·🇺🇸 United States

Запущен Dec 11, 2025 с Cape Canaveral Space Force Station

Loading…

Ближайшие Пролёты (ближайшие 24 часа)

TLE

СвежийSource: CelesTrak SupGP

Эпоха: Sep 15, 2026, 04:10 UTC

1 67038C 25294J   26258.17409722 -.00143310  00000+0 -51896-2 0  2583
2 67038  43.0031  47.7514 0001323 268.1929 352.3469 15.27657802    17

Отслеживайте STARLINK-35775 в реальном времени с AllMySat

Download on the App Store